Regional Weather Roundup
Issued by NWS Binghamton, NY

Home | Current Version | Previous Version | Text Only | Print | Product List | Glossary On
Versions: 1 2 3 4 5 6 7 8 9 10 11 12 13 14 15 16 17 18 19 20 21 22 23 24 25 26 27 28
000
ASUS41 KBGM 191610
RWRBGM

REGIONAL WEATHER ROUNDUP
NATIONAL WEATHER SERVICE BINGHAMTON NY
1200 PM EDT TUE SEP 19 2017

Note: "fair" indicates few or no clouds below 12,000 feet with no
significant weather and/or obstructions to visibility.

* = Station(s) that does not report precipitation, such as rain,
snow, etc, also no thunder or fog.

NYZ009-015>018-022>025-036-037-044>046-055>057-062-191700
...Central New York...

CITY           SKY/WX    TMP DP  RH WIND       PRES   REMARKS
Binghamton     MOSUNNY   71  59  65 VRB3      30.09F
Cortland       FAIR      72  61  68 CALM      30.09F
Dansville      SUNNY     74  61  63 VRB5      30.06F
Elmira         MOSUNNY   72  64  76 VRB3      30.07F
Seneca Falls   SUNNY     73  63  68 S6        30.07F
Ithaca         MOSUNNY   72  63  73 CALM      30.09F
Hamilton       SUNNY     75  57  53 CALM      30.09F
Hornell        SUNNY     73  61  64 S5        30.11F
Monticello     MOSUNNY   74  62  66 E9        30.09F
Penn Yan       SUNNY     73  60  63 S5        30.08F
Rome           SUNNY     75  64  68 SE8       30.08F
Sidney         SUNNY     68  63  83 CALM      30.09F
Syracuse       MOSUNNY   76  65  68 E7        30.06F
$$

PAZ038>040-043-044-047-048-072-191700
...Northeast Pennsylvania...

CITY           SKY/WX    TMP DP  RH WIND       PRES   REMARKS
Hazleton         N/A     73  63  68 N7        30.10F
Scranton       CLOUDY    74  63  68 NE9       30.06F
$$
&&
KEY
WCI = Wind Chill Index
VSB = Visibility
HX  = Heat Index
$$




USA.gov is the U.S. government's official web portal to all federal, state and local government web resources and services.